Location: Anglesey
(53.1800°N, 4.2200°W)
Time: 08:19:59
(UTC+01:00)

Envisat - Pass Details

Date: 16 October 2017
Orbit: 764 x 766 km, 98.2° (Epoch: 18 October)

Event Time Altitude Azimuth Distance (km) Brightness Sun altitude
Exits shadow 20:45:37 39° 160° (SSE) 1,130 3.6 -22.7°
Maximum altitude 20:47:33 86° 73° (ENE) 775 2.9 -22.9°
Drops below altitude 10° 20:52:40 10° 346° (NNW) 2,315 5.9 -23.7°
Sets 20:54:59 0° 346° (NNW) 3,246 6.7 -24.0°
